Weather History for KSPA - October, 2012

Change the Weather History Date:

Friday, October 19, 2012

  Actual Average (KGSP) Record (KGSP)
Temperature  
Mean Temperature 60 °F 61 °F  
Max Temperature 73 °F 72 °F 87 °F (1941)
Min Temperature 48 °F 49 °F 32 °F (2009)
Degree Days  
Heating Degree Days 4 5  
Month to date heating degree days 68  
Since 1 July heating degree days 85  
Cooling Degree Days 0 1  
Month to date cooling degree days 38  
Year to date cooling degree days 1700  
Growing Degree Days 10 (Base 50)    
Moisture  
Dew Point 44 °F    
Average Humidity 62    
Maximum Humidity 100    
Minimum Humidity 22    
Precipitation  
Precipitation 0.01 in 0.11 in 5.40 in (1937)
Month to date precipitation 2.18  
Year to date precipitation 38.12  
Snow  
Snow 0.00 in 0.00 in 0.00 in ()
Month to date snowfall 0.0  
Since 1 July snowfall 0.0  
Since 1 September snowfall 0.0  
Snow Depth -    
Sea Level Pressure  
Sea Level Pressure 29.78 in    
Wind  
Wind Speed 5 mph (WSW)    
Max Wind Speed 18 mph    
Max Gust Speed 30 mph    
Visibility 7 miles    
Events Fog    
T = Trace of Precipitation, MM = Missing Value Source: NWS Daily Summary

Daily Weather History Graph

Daily Weather History Graph

Search for Another Location

Airport or City:

Trip Planner

Search our weather history database for the weather conditions in past years. The results will help you decide how hot, cold, wet, or windy it might be!

Date:

Astronomy

Oct. 19, 2012 Rise Set
Actual Time 7:37 AM EDT 6:47 PM EDT
Civil Twilight 7:11 AM EDT 7:12 PM EDT
Nautical Twilight 6:42 AM EDT 7:42 PM EDT
Astronomical Twilight 6:13 AM EDT 8:11 PM EDT
Moon 12:11 PM EDT (10/19) 10:32 PM EDT (10/19)
Length of Visible Light 12h 01m
Length of Day
11h 09m
Waxing Crescent, 23% of the Moon is Illuminated
Oct 19
Waxing Crescent
Oct 21
First Quarter
Oct 29
Full
Nov 6
Last Quarter
Nov 13
New

Hourly Weather History & Observations

Time (EDT) Temp. Dew Point Humidity Pressure Visibility Wind Dir Wind Speed Gust Speed Precip Events Conditions
12:15 AM 59.0 °F 59.0 °F 100% 29.80 in 1.0 mi Calm Calm - N/A   Mist
3:15 AM 57.2 °F 57.2 °F 100% 29.78 in 0.8 mi WSW 4.6 mph - N/A   Mostly Cloudy
3:35 AM 59.0 °F 59.0 °F 100% 29.77 in 2.0 mi Calm Calm - N/A   Mostly Cloudy
3:55 AM 55.4 °F 55.4 °F 100% 29.77 in 0.5 mi WSW 4.6 mph - N/A Fog Fog
4:15 AM 57.2 °F 57.2 °F 100% 29.78 in 0.2 mi West 6.9 mph - N/A Fog Fog
4:35 AM 59.0 °F 59.0 °F 100% 29.78 in 2.5 mi West 6.9 mph - N/A   Overcast
4:55 AM 59.0 °F 59.0 °F 100% 29.78 in 2.5 mi West 6.9 mph - N/A   Overcast
5:15 AM 57.2 °F 57.2 °F 100% 29.78 in 2.5 mi Calm Calm - N/A   Mostly Cloudy
5:35 AM 57.2 °F 57.2 °F 100% 29.78 in 1.2 mi Calm Calm - N/A   Scattered Clouds
5:55 AM 57.2 °F 57.2 °F 100% 29.78 in 0.2 mi Calm Calm - N/A Fog Fog
6:15 AM 57.2 °F 57.2 °F 100% 29.78 in 0.2 mi Calm Calm - N/A Fog Fog
6:35 AM 57.2 °F 57.2 °F 100% 29.78 in 0.2 mi SW 4.6 mph - N/A Fog Fog
6:55 AM 57.2 °F 57.2 °F 100% 29.79 in 0.2 mi WSW 4.6 mph - N/A Fog Fog
7:15 AM 55.4 °F 55.4 °F 100% 29.80 in 0.2 mi Calm Calm - N/A Fog Fog
7:35 AM 55.4 °F 55.4 °F 100% 29.80 in 0.2 mi Calm Calm - N/A Fog Fog
7:55 AM 53.6 °F 53.6 °F 100% 29.80 in 4.0 mi Calm Calm - N/A   Scattered Clouds
8:15 AM 53.6 °F 53.6 °F 100% 29.80 in 0.2 mi Calm Calm - N/A Fog Fog
8:35 AM 51.8 °F 51.8 °F 100% 29.80 in 0.5 mi WSW 3.5 mph - N/A Fog Fog
8:55 AM 53.6 °F 53.6 °F 100% 29.81 in 10.0 mi WSW 3.5 mph - 0.01 in   Clear
9:15 AM 53.6 °F 53.6 °F 100% 29.81 in 10.0 mi SW 3.5 mph - N/A   Clear
9:35 AM 53.6 °F 53.6 °F 100% 29.81 in 10.0 mi WSW 3.5 mph - N/A   Clear
9:55 AM 55.4 °F 53.6 °F 94% 29.81 in 10.0 mi West 8.1 mph - N/A   Clear
10:15 AM 59.0 °F 51.8 °F 77% 29.81 in 10.0 mi West 6.9 mph - N/A   Clear
10:35 AM 60.8 °F 48.2 °F 63% 29.81 in 10.0 mi WSW 10.4 mph - N/A   Clear
10:55 AM 62.6 °F 46.4 °F 55% 29.81 in 10.0 mi West 9.2 mph - N/A   Clear
11:15 AM 64.4 °F 46.4 °F 52% 29.81 in 10.0 mi WSW 9.2 mph - N/A   Clear
11:35 AM 66.2 °F 41.0 °F 40% 29.81 in 10.0 mi WSW 8.1 mph - N/A   Clear
11:55 AM 68.0 °F 37.4 °F 33% 29.81 in 10.0 mi WSW 9.2 mph - N/A   Clear
12:15 PM 68.0 °F 35.6 °F 30% 29.81 in 10.0 mi WSW 11.5 mph 18.4 mph N/A   Clear
12:55 PM 69.8 °F 33.8 °F 27% 29.80 in 10.0 mi WSW 13.8 mph 21.9 mph N/A   Clear
1:15 PM 69.8 °F 33.8 °F 27% 29.80 in 10.0 mi West 12.7 mph 20.7 mph N/A   Clear
1:35 PM 71.6 °F 32.0 °F 23% 29.79 in 10.0 mi West 11.5 mph 24.2 mph N/A   Clear
1:55 PM 71.6 °F 32.0 °F 23% 29.78 in 10.0 mi WSW 17.3 mph 29.9 mph N/A   Clear
2:15 PM 71.6 °F 32.0 °F 23% 29.77 in 10.0 mi West 16.1 mph 25.3 mph N/A   Clear
2:35 PM 71.6 °F 32.0 °F 23% 29.76 in 10.0 mi WSW 18.4 mph 28.8 mph N/A   Clear
2:55 PM 73.4 °F 32.0 °F 22% 29.75 in 10.0 mi SW 12.7 mph 23.0 mph N/A   Clear
3:15 PM 73.4 °F 33.8 °F 23% 29.75 in 10.0 mi WSW 11.5 mph 29.9 mph N/A   Clear
3:35 PM 71.6 °F 33.8 °F 25% 29.75 in 10.0 mi SW 16.1 mph 23.0 mph N/A   Clear
3:55 PM 71.6 °F 33.8 °F 25% 29.74 in 10.0 mi SW 10.4 mph 21.9 mph N/A   Clear
4:15 PM 71.6 °F 33.8 °F 25% 29.74 in 10.0 mi SW 16.1 mph 23.0 mph N/A   Clear
4:35 PM 71.6 °F 33.8 °F 25% 29.73 in 10.0 mi SW 15.0 mph 23.0 mph N/A   Clear
4:55 PM 71.6 °F 33.8 °F 25% 29.74 in 10.0 mi WSW 12.7 mph 20.7 mph N/A   Clear
5:15 PM 71.6 °F 33.8 °F 25% 29.73 in 10.0 mi SW 13.8 mph 20.7 mph N/A   Clear
5:35 PM 71.6 °F 33.8 °F 25% 29.73 in 10.0 mi SW 13.8 mph 25.3 mph N/A   Clear
5:55 PM 71.6 °F 33.8 °F 25% 29.74 in 10.0 mi WSW 8.1 mph 24.2 mph N/A   Clear
6:15 PM 69.8 °F 35.6 °F 28% 29.74 in 10.0 mi WSW 9.2 mph - N/A   Clear
6:35 PM 69.8 °F 35.6 °F 28% 29.74 in 10.0 mi WSW 6.9 mph - N/A   Clear
6:55 PM 68.0 °F 35.6 °F 30% 29.74 in 10.0 mi SW 4.6 mph - N/A   Clear
7:15 PM 64.4 °F 35.6 °F 34% 29.75 in 10.0 mi Calm Calm - N/A   Clear
7:35 PM 60.8 °F 41.0 °F 48% 29.75 in 10.0 mi Calm Calm - N/A   Clear
7:55 PM 60.8 °F 41.0 °F 48% 29.76 in 10.0 mi SSW 3.5 mph - N/A   Clear
8:15 PM 60.8 °F 41.0 °F 48% 29.77 in 10.0 mi SW 3.5 mph - N/A   Clear
8:35 PM 59.0 °F 41.0 °F 51% 29.77 in 10.0 mi Calm Calm - N/A   Clear
9:35 PM 59.0 °F 39.2 °F 48% 29.78 in 10.0 mi SW 3.5 mph - N/A   Clear
9:55 PM 53.6 °F 41.0 °F 62% 29.78 in 10.0 mi WSW 3.5 mph - N/A   Clear
10:15 PM 55.4 °F 41.0 °F 58% 29.78 in 10.0 mi Calm Calm - N/A   Clear
10:35 PM 53.6 °F 42.8 °F 67% 29.79 in 10.0 mi Calm Calm - N/A   Clear
10:55 PM 51.8 °F 42.8 °F 71% 29.79 in 10.0 mi Calm Calm - N/A   Clear
11:15 PM 53.6 °F 41.0 °F 62% 29.79 in 10.0 mi SW 3.5 mph - N/A   Clear
11:35 PM 48.2 °F 42.8 °F 82% 29.80 in 10.0 mi Calm Calm - N/A   Clear
11:55 PM 50.0 °F 42.8 °F 76% 29.80 in 10.0 mi West 3.5 mph - N/A   Clear